Hourly Data Report for September 22, 2017

All times are specified in Local Standard Time (LST). Add 1 hour to adjust for Daylight Saving Time where and when it is observed.

EUREKA CLIMATE
NUNAVUT

79°59'21.000" N
85°56'02.000" W
10.00 m
2401199
71613
NEK

Download Data

Hourly Data (September 2017)
Hourly Data Report for September 22, 2017
Temp Definition
°C
Dew Point Temp Definition
°C
Rel Hum Definition
%
Wind Dir Definition
10's deg

Wind Spd Definition
km/h
Visibility Definition
km
Stn Press Definition
kPa
Hmdx Definition


Wind Chill Definition


Weather Definition


TIME
00:00 -13.5 -15.0 89 4 3   101.87   -16 LegendNANA
01:00 -13.5 -14.9 89 7 2   101.84   -15 LegendNANA
02:00 -13.8 -15.1 89 5 6   101.85   -18 LegendNANA
03:00 -13.7 -15.1 89 2 10   101.84   -20 LegendNANA
04:00 -13.8 -15.2 89 14 4   101.84   -17 LegendNANA
05:00 -13.0 -14.2 90 12 7   101.83   -18 LegendNANA
06:00 -12.6 -13.9 90 11 10   101.84   -18 LegendNANA
07:00 -11.9 -12.9 92 11 7   101.82   -16 LegendNANA
08:00 -11.4 -12.0 95 11 10   101.80   -17 LegendNANA
09:00 -11.0 -11.6 95 11 9   101.76   -16 LegendNANA
10:00 -10.6 -11.2 95 11 11   101.77   -16 LegendNANA
11:00 -10.5 -11.3 94 11 8   101.75   -15 LegendNANA
12:00 -10.8 -11.5 95 11 10   101.72   -16 LegendNANA
13:00 -10.9 -11.6 95 11 11   101.72   -17 LegendNANA
14:00 -11.0 -11.8 94 11 11   101.72   -17 LegendNANA
15:00 -10.4 -11.1 95 10 7   101.72   -14 LegendNANA
16:00 -10.2 -11.0 94 13 5   101.71   -13 LegendNANA
17:00 -11.8 -12.5 94 11 5   101.71   -15 LegendNANA
18:00 -12.1 -12.8 95 8 4   101.71   -15 LegendNANA
19:00 -12.5 -13.4 93 10 5   101.70   -16 LegendNANA
20:00 -12.6 -13.4 93 11 7   101.68   -17 LegendNANA
21:00 -13.1 -13.9 93 10 8   101.64   -18 LegendNANA
22:00 -13.6 -14.5 92 13 3   101.61   -16 LegendNANA
23:00 -13.6 -14.4 94 5 2   101.60   -15 LegendNANA

Notes on Data Quality.

Legend

  • E = Estimated
  • M = Missing
  • NA = Not Available
  • ‡ = Partner data that is not subject to review by the National Climate Archives
Date modified: